Track FLOCK 3P 61 now! 10-day predictions FLOCK 3P 61 is classified as:
1 42009U 17008BP 22142.43114553 .00018098 00000-0 56249-3 0 9993 2 42009 97.2788 209.3617 0005072 345.4243 14.6853 15.33381012293070